| time (UTC) | temp C | wind direction | speed KPH | gust KPH | rain 1hr cm | rain 24hr cm | rain mn cm | humidity % | barometer mb |
| 20260506231522 | 6 | 311 | 3.2 | 11.3 | 0.00 | 0.00 | 0.00 | 97 | 1011.1 |
| 20260506230017 | 6 | 338 | 3.2 | 6.4 | 0.00 | 0.00 | 0.00 | 97 | 1011.0 |
| 20260506224516 | 7 | 334 | 3.2 | 11.3 | 0.00 | 0.00 | 0.00 | 97 | 1010.7 |
| 20260506223012 | 7 | 355 | 4.8 | 9.7 | 0.00 | 0.00 | 0.00 | 97 | 1010.2 |
| 20260506221509 | 7 | 301 | 4.8 | 9.7 | 0.00 | 0.00 | 0.00 | 97 | 1010.2 |
| 20260506220008 | 7 | 334 | 4.8 | 11.3 | 0.00 | 0.00 | 0.00 | 97 | 1010.1 |
| 20260506214517 | 7 | 336 | 6.4 | 14.5 | 0.00 | 0.00 | 0.00 | 96 | 1009.9 |
| 20260506213003 | 7 | 328 | 6.4 | 12.9 | 0.00 | 0.00 | 0.00 | 97 | 1009.6 |
| 20260506211601 | 8 | 323 | 4.8 | 11.3 | 0.00 | 0.00 | 0.00 | 96 | 1009.0 |
| 20260506210059 | 8 | 330 | 3.2 | 8.0 | 0.00 | 0.00 | 0.00 | 96 | 1008.7 |
| 20260506204606 | 8 | 315 | 3.2 | 9.7 | 0.00 | 0.00 | 0.00 | 96 | 1008.4 |
| 20260506203053 | 8 | 331 | 4.8 | 11.3 | 0.00 | 0.00 | 0.00 | 95 | 1008.1 |
| 20260506201549 | 10 | 338 | 6.4 | 12.9 | 0.00 | 0.00 | 0.00 | 95 | 1008.0 |
| 20260506200044 | 11 | 329 | 6.4 | 12.9 | 0.00 | 0.00 | 0.00 | 95 | 1007.9 |
| 20260506194544 | 12 | 340 | 0.0 | 9.7 | 0.00 | 0.00 | 0.00 | 97 | 1007.5 |
| 20260506193047 | 13 | 237 | 0.0 | 14.5 | 0.00 | 0.00 | 0.00 | 98 | 1007.2 |
| 20260506191543 | 13 | 141 | 0.0 | 8.0 | 0.00 | 0.00 | 0.00 | 98 | 1007.1 |
| 20260506190042 | 13 | 219 | 0.0 | 8.0 | 0.00 | 0.00 | 0.00 | 98 | 1007.0 |
| 20260506184544 | 13 | 160 | 0.0 | 6.4 | 0.00 | 0.00 | 0.00 | 99 | 1007.2 |
| 20260506183041 | 13 | 136 | 1.6 | 8.0 | 0.00 | 0.00 | 0.00 | 98 | 1006.9 |
| 20260506181539 | 13 | 133 | 0.0 | 12.9 | 0.00 | 0.00 | 0.00 | 98 | 1007.0 |
| 20260506180038 | 13 | 148 | 0.0 | 8.0 | 0.00 | 0.00 | 0.00 | 98 | 1007.0 |
| 20260506174538 | 13 | 129 | 0.0 | 8.0 | 0.00 | 0.00 | 0.00 | 99 | 1007.0 |
| 20260506173036 | 13 | 128 | 1.6 | 11.3 | 0.00 | 0.00 | 0.00 | 99 | 1007.1 |
| 20260506171535 | 13 | 134 | 1.6 | 14.5 | 0.00 | 0.00 | 0.00 | 99 | 1007.1 |
| 20260506170033 | 12 | 152 | 0.0 | 9.7 | 0.00 | 0.00 | 0.00 | 99 | 1007.2 |
| 20260506164533 | 12 | 153 | 0.0 | 16.1 | 0.00 | 0.00 | 0.00 | 99 | 1007.3 |
| 20260506163032 | 12 | 119 | 1.6 | 8.0 | 0.00 | 0.00 | 0.00 | 99 | 1007.4 |
| 20260506161533 | 12 | 155 | 0.0 | 9.7 | 0.00 | 0.00 | 0.00 | 99 | 1007.4 |
| 20260506160033 | 12 | 117 | 0.0 | 9.7 | 0.00 | 0.00 | 0.00 | 99 | 1007.5 |
| 20260506154530 | 12 | 136 | 0.0 | 6.4 | 0.00 | 0.00 | 0.00 | 99 | 1007.7 |
| 20260506153040 | 12 | 192 | 1.6 | 12.9 | 0.00 | 0.00 | 0.00 | 99 | 1007.5 |
| 20260506151529 | 12 | 132 | 4.8 | 11.3 | 0.00 | 0.00 | 0.00 | 99 | 1007.4 |
| 20260506150028 | 12 | 158 | 0.0 | 8.0 | 0.00 | 0.00 | 0.00 | 99 | 1007.4 |
| 20260506144549 | 12 | 175 | 0.0 | 6.4 | 0.00 | 0.00 | 0.00 | 99 | 1007.4 |
| 20260506143028 | 12 | 141 | 1.6 | 9.7 | 0.00 | 0.00 | 0.00 | 99 | 1007.1 |
| 20260506141525 | 12 | 164 | 1.6 | 8.0 | 0.00 | 0.00 | 0.00 | 99 | 1007.4 |
| 20260506140035 | 11 | 158 | 3.2 | 4.8 | 0.00 | 0.00 | 0.00 | 99 | 1007.6 |
| 20260506134523 | 11 | 134 | 0.0 | 6.4 | 0.00 | 0.00 | 0.00 | 99 | 1008.0 |
| 20260506133020 | 11 | 153 | 0.0 | 0.0 | 0.00 | 0.00 | 0.00 | 99 | 1008.3 |
| 20260506131525 | 11 | 126 | 0.0 | 0.0 | 0.00 | 0.00 | 0.00 | 99 | 1008.7 |
| 20260506130018 | 11 | 126 | 0.0 | 0.0 | 0.00 | 0.00 | 0.00 | 99 | 1008.6 |
| 20260506124514 | 11 | 126 | 0.0 | 0.0 | 0.00 | 0.00 | 0.00 | 99 | 1008.1 |
| 20260506123014 | 11 | 126 | 0.0 | 0.0 | 0.00 | 0.00 | 0.00 | 99 | 1008.3 |
| 20260506121510 | 11 | 126 | 0.0 | 0.0 | 0.00 | 0.00 | 0.00 | 99 | 1008.3 |
| 20260506120018 | 11 | 126 | 0.0 | 0.0 | 0.00 | 0.00 | 0.00 | 99 | 1008.3 |
| 20260506114517 | 11 | 126 | 0.0 | 0.0 | 0.00 | 0.00 | 0.00 | 99 | 1008.3 |
| 20260506113007 | 11 | 126 | 0.0 | 3.2 | 0.00 | 0.00 | 0.00 | 98 | 1008.3 |
| 20260506111506 | 11 | 124 | 0.0 | 0.0 | 0.00 | 0.00 | 0.00 | 98 | 1008.6 |
| 20260506110004 | 11 | 126 | 0.0 | 0.0 | 0.00 | 0.00 | 0.00 | 98 | 1008.7 |
| 20260506104503 | 11 | 126 | 0.0 | 0.0 | 0.00 | 0.00 | 0.00 | 97 | 1008.5 |
| 20260506103002 | 11 | 126 | 0.0 | 4.8 | 0.00 | 0.00 | 0.00 | 97 | 1008.3 |
| 20260506101600 | 11 | 132 | 0.0 | 0.0 | 0.00 | 0.00 | 0.00 | 96 | 1008.1 |
| 20260506100109 | 12 | 132 | 0.0 | 4.8 | 0.00 | 0.00 | 0.00 | 94 | 1008.1 |
| 20260506094605 | 12 | 144 | 0.0 | 0.0 | 0.00 | 0.00 | 0.00 | 93 | 1007.9 |
| 20260506093058 | 12 | 144 | 0.0 | 6.4 | 0.00 | 0.00 | 0.00 | 91 | 1007.7 |
| 20260506091557 | 12 | 132 | 0.0 | 4.8 | 0.00 | 0.00 | 0.00 | 93 | 1007.7 |
| 20260506090055 | 12 | 159 | 0.0 | 4.8 | 0.00 | 0.00 | 0.00 | 97 | 1007.9 |
| 20260506084556 | 11 | 155 | 0.0 | 0.0 | 0.00 | 0.00 | 0.00 | 98 | 1008.0 |
| 20260506083057 | 11 | 154 | 0.0 | 0.0 | 0.00 | 0.00 | 0.00 | 99 | 1007.7 |
| 20260506081605 | 11 | 173 | 0.0 | 3.2 | 0.00 | 0.00 | 0.00 | 99 | 1007.7 |
| 20260506073051 | 12 | 173 | 0.0 | 4.8 | 0.00 | 0.00 | 0.00 | 99 | 1007.9 |
| 20260506071548 | 12 | 33 | 0.0 | 0.0 | 0.00 | 0.00 | 0.00 | 99 | 1008.1 |
| 20260506061546 | 11 | 342 | 0.0 | 0.0 | 0.00 | 0.00 | 0.00 | 99 | 1008.8 |
| 20260506044544 | 12 | 343 | 0.0 | 0.0 | 0.00 | 0.00 | 0.00 | 99 | 1009.8 |
| 20260506043027 | 12 | 343 | 0.0 | 3.2 | 0.00 | 0.00 | 0.00 | 99 | 1009.9 |
| 20260506041525 | 12 | 5 | 0.0 | 0.0 | 0.00 | 0.00 | 0.00 | 99 | 1009.9 |
| 20260506040022 | 12 | 40 | 0.0 | 3.2 | 0.00 | 0.00 | 0.00 | 99 | 1010.0 |
| 20260506034522 | 12 | 41 | 0.0 | 0.0 | 0.00 | 0.00 | 0.00 | 99 | 1010.0 |
| 20260506033026 | 12 | 41 | 0.0 | 0.0 | 0.00 | 0.00 | 0.00 | 99 | 1010.1 |
| 20260506031537 | 12 | 41 | 0.0 | 0.0 | 0.00 | 0.00 | 0.00 | 99 | 1009.9 |
| 20260506030018 | 13 | 41 | 0.0 | 0.0 | 0.00 | 0.00 | 0.00 | 99 | 1009.8 |
| 20260506024526 | 13 | 41 | 0.0 | 4.8 | 0.00 | 0.00 | 0.00 | 99 | 1009.7 |
| 20260506023018 | 13 | 79 | 0.0 | 0.0 | 0.00 | 0.00 | 0.00 | 99 | 1009.7 |
| 20260506021518 | 13 | 79 | 0.0 | 0.0 | 0.00 | 0.00 | 0.00 | 99 | 1009.6 |
| 20260506020017 | 13 | 79 | 0.0 | 4.8 | 0.00 | 0.00 | 0.00 | 99 | 1009.4 |
| 20260506014516 | 13 | 79 | 0.0 | 0.0 | 0.00 | 0.00 | 0.00 | 99 | 1009.6 |
| 20260506013020 | 13 | 79 | 0.0 | 0.0 | 0.00 | 0.00 | 0.00 | 99 | 1009.4 |
| 20260506011518 | 13 | 79 | 0.0 | 0.0 | 0.00 | 0.00 | 0.00 | 99 | 1009.1 |
| 20260506010040 | 13 | 79 | 0.0 | 0.0 | 0.00 | 0.00 | 0.00 | 99 | 1008.9 |
| 20260506004514 | 13 | 79 | 0.0 | 0.0 | 0.00 | 0.00 | 0.00 | 98 | 1008.8 |
| 20260506003014 | 13 | 79 | 0.0 | 0.0 | 0.00 | 0.00 | 0.00 | 98 | 1008.6 |
| 20260506001513 | 14 | 78 | 0.0 | 1.6 | 0.00 | 0.00 | 0.00 | 98 | 1008.6 |
| 20260506000014 | 13 | 78 | 0.0 | 0.0 | 0.00 | 0.00 | 0.00 | 98 | 1008.5 |
| 20260505234512 | 14 | 78 | 0.0 | 0.0 | 0.00 | 0.00 | 0.00 | 98 | 1008.4 |
| 20260505233012 | 14 | 78 | 0.0 | 0.0 | 0.00 | 0.00 | 0.00 | 98 | 1008.5 |